CREW DRAGON DEMO-1 DEB (44064 NORAD) Tracking and Keplerian Element Data

This shows tracking and keplerian element data for the satellite.

Feedback or suggestion? Click here.




ElementValue
Catalog44064
NameCREW DRAGON DEMO-1 DEB
Epoch Orbit368
Epoch Day91.10629364
Epoch Year2019
RAAN23.7152
Inclination51.6389
Eccentricity0.0004964
Argument of Perigee167.9291
Mean Anonmoly192.1721
Mean Motion15.56728342
Decay Rate7.763E-05
L11 44064U 19011B 19091.10629364 .00007763 00000-0 11322-3 0 9996
L22 44064 51.6389 23.7152 0004964 167.9291 192.1721 15.56728342 3683

Live tracking and technical data element details for CREW DRAGON DEMO-1 DEB (NORAD 44064). CREW DRAGON DEMO-1 DEB can be tracked NOW for your location showing map with azimuth and elevation plus other details from your city location.

Track the satellite on the map from your city or location and see movement details for azimuth, elevation, latitude, longitude, range, height, and movement on the map or in text.







IsCatalogInMostPopularTable: catalog: 44064, numindb: 56
Update: records affected: 1



GetName: 44064 CREW DRAGON DEMO-1 DEB

Hit Count: updated at: Mon, 22 Jul 2019 04:24:24 GMT